Regional Weather Roundup
Issued by NWS

Home | Current Version | Previous Version | Text Only | Print | Product List | Glossary Off
Versions: 1 2 3 4 5 6 7 8 9 10 11 12 13 14 15 16 17 18 19 20 21 22 23 24 25 26 27 28 29 30 31 32 33 34 35 36 37 38 39 40 41 42 43 44 45 46 47 48 49 50

000
ASUS43 KLOT 070200
RWRIL

ILLINOIS REGIONAL WEATHER ROUNDUP
NATIONAL WEATHER SERVICE CHICAGO/ROMEOVILLE IL
800 PM CST FRI MAR 06 2015

NOTE: "FAIR" INDICATES FEW OR NO CLOUDS BELOW 12,000 FEET WITH NO
SIGNIFICANT WEATHER AND/OR OBSTRUCTIONS TO VISIBILITY.

* THESE STATIONS ARE NOT UNDER NWS QUALITY CONTROL. THEY ALSO MAY NOT
  REPORT WEATHER SUCH AS PRECIPITATION OR FOG.

ILZ001-002-007-009-015-016-024-070300-
NORTHWEST ILLINOIS

CITY           SKY/WX    TMP DP  RH WIND       PRES   REMARKS
MOLINE         PTCLDY    36  25  64 SW6       30.13F WCI  31
STERLING*      PTCLDY    28  21  74 SW3       30.15F
$$

ILZ003-004-008-010-011-017-018-070300-
NORTH CENTRAL ILLINOIS

CITY           SKY/WX    TMP DP  RH WIND       PRES   REMARKS
ROCKFORD       MOCLDY    24  18  77 S7        30.15S WCI  16
FREEPORT*      PTCLDY    28  21  75 SW13      30.14S WCI  18
$$

ILZ005-006-012>014-019>023-070300-
NORTHEAST ILLINOIS

CITY           SKY/WX    TMP DP  RH WIND       PRES   REMARKS
CHICAGO-OHARE  PTCLDY    25  17  72 SW17G24   30.16F WCI  12
CHICAGO-MIDWAY PTCLDY    25  16  68 SW15G23   30.19F WCI  13
AURORA         CLEAR     23  15  71 S12       30.17F WCI  12
LANSING*       CLEAR     22  15  74 SW14      30.21F WCI   9
WAUKEGAN       CLEAR     23  17  78 SW16      30.13S WCI  10
DUPAGE AIRPORT CLEAR     22  16  78 S14       30.16F WCI   9
WHEELING       CLEAR     25  17  72 SW10G22   30.17F WCI  15
NORTHERLY ISL    N/A     25  16  68 S10         N/A  WCI  15
$$

LMZ740>746-070300-
SOUTHERN LAKE MICHIGAN

STATION/POSITION SKY/WX   TEMP    WIND        PRES    VSBY  WAVE
                          AIR SEA DIR/SP/G                  HT/PER
                          (F)     (DEG/KT/KT) (MB)    (MI)  (FT/S)
WAUKEGAN HARBOR            26                   N/A
HARRISON CRIB              25     200/ 21/ 27   N/A
BURNHAM HARBOR             25     200/ 10/ 16   N/A
CALUMET HARBOR             25     200/ 16/ 21 1021.0F
MICHIGAN CITY              23     170/ 13/ 17   N/A
$$

ILZ025>027-034>036-040-047-049-050-058-095>099-070300-
WEST-CENTRAL ILLINOIS

CITY           SKY/WX    TMP DP  RH WIND       PRES   REMARKS
QUINCY         CLEAR     40  27  59 S12       30.21S
MACOMB*        CLEAR     37  29  72 SW9       30.20F WCI  31
$$

ILZ028>032-037-038-041>044-048-051>054-059>061-070300-
CENTRAL ILLINOIS

CITY           SKY/WX    TMP DP  RH WIND       PRES   REMARKS
DECATUR        CLEAR     26  17  68 S10       30.27F WCI  16
PEORIA         CLEAR     29  21  72 S10       30.21F WCI  20
SPRINGFIELD    PTCLDY    30  21  69 S12       30.25F WCI  20
TAYLORVILLE    NOT AVBL
$$

ILZ033-039-045-046-055>057-062-063-070300-
EAST-CENTRAL ILLINOIS

CITY           SKY/WX    TMP DP  RH WIND       PRES   REMARKS
CHAMPAIGN      CLEAR     20  12  71 S12       30.27F WCI   8
MATTOON        CLEAR     24  13  62 S14       30.28F WCI  12
$$

ILZ079-100>102-070300-
SOUTHWEST ILLINOIS

CITY           SKY/WX    TMP DP  RH WIND       PRES   REMARKS
BELLEVILLE     CLEAR     30  21  68 VRB7      30.31S WCI  24
CAHOKIA*       CLEAR     33  22  63 SE12      30.31R WCI  24
$$

ILZ064>066-069>071-074>076-080>082-084>086-088>090-092>094-070300-
SOUTH-CENTRAL ILLINOIS

CITY           SKY/WX    TMP DP  RH WIND       PRES   REMARKS
CARBONDALE     CLEAR     25  13  60 S15       30.40S WCI  13
MT. VERNON     CLEAR     27  16  63 S13       30.37S WCI  16
$$

ILZ067-068-072-073-078-083-087-091-070300-
SOUTHEAST ILLINOIS

CITY           SKY/WX    TMP DP  RH WIND       PRES   REMARKS
LAWRENCEVILLE  CLEAR     23  12  62 S12       30.37S WCI  12
$$

ABBREVIATIONS USED IN REMARKS
   TC - TEMPERATURE IN CELSIUS
  WCI - WIND CHILL INDEX
   HX - HEAT INDEX
  VSB - VISIBILITY
$$



USA.gov is the U.S. government's official web portal to all federal, state and local government web resources and services.